Time,TemperatureF,DewpointF,PressureIn,WindDirection,WindDirectionDegrees,WindSpeedMPH,WindSpeedGustMPH,Humidity,HourlyPrecipIn,Conditions,Clouds,dailyrainin,SoftwareType,DateUTC
2013-03-23 00:04:00,45.9,34.0,28.85,NNW,338,0.0,0.0,63,0.00,,---,0.00,VWS V14.00,2013-03-23 04:04:00,
2013-03-23 00:07:00,45.7,33.8,28.85,NNW,338,0.0,0.0,63,0.00,,---,0.00,VWS V14.00,2013-03-23 04:07:00,
2013-03-23 00:10:00,45.7,33.8,28.85,NNW,338,0.0,0.0,63,0.00,,---,0.00,VWS V14.00,2013-03-23 04:10:00,
2013-03-23 00:19:00,45.7,33.8,28.85,NNW,338,0.0,0.0,63,0.00,,---,0.00,VWS V14.00,2013-03-23 04:19:00,
2013-03-23 00:25:00,45.7,33.8,28.85,NNW,338,0.0,0.0,63,0.00,,---,0.00,VWS V14.00,2013-03-23 04:25:00,
2013-03-23 00:31:00,45.9,34.0,28.85,West,270,0.0,0.0,63,0.00,,---,0.00,VWS V14.00,2013-03-23 04:31:00,
2013-03-23 00:37:00,45.9,34.0,28.85,West,270,0.9,2.0,63,0.00,,---,0.00,VWS V14.00,2013-03-23 04:37:00,
2013-03-23 00:43:00,45.9,34.0,28.85,West,270,0.0,2.0,63,0.00,,---,0.00,VWS V14.00,2013-03-23 04:43:00,
2013-03-23 00:49:00,45.9,34.0,28.85,West,270,0.0,2.0,63,0.00,,---,0.00,VWS V14.00,2013-03-23 04:49:00,
2013-03-23 00:55:00,45.9,34.0,28.85,West,270,1.1,2.0,63,0.00,,---,0.00,VWS V14.00,2013-03-23 04:55:00,
2013-03-23 01:01:00,45.9,34.0,28.85,West,270,0.0,0.0,63,0.00,,---,0.00,VWS V14.00,2013-03-23 05:01:00,
2013-03-23 01:07:00,45.5,33.7,28.85,West,270,0.0,0.0,63,0.00,,---,0.00,VWS V14.00,2013-03-23 05:07:00,
2013-03-23 01:13:00,45.5,33.7,28.85,West,270,1.3,2.0,63,0.00,,---,0.00,VWS V14.00,2013-03-23 05:13:00,
2013-03-23 01:19:00,45.7,33.8,28.85,West,270,0.0,2.0,63,0.00,,---,0.00,VWS V14.00,2013-03-23 05:19:00,
2013-03-23 01:25:00,45.5,33.7,28.85,West,270,0.0,2.0,63,0.00,,---,0.00,VWS V14.00,2013-03-23 05:25:00,
2013-03-23 01:31:00,45.7,33.8,28.85,West,270,0.0,2.0,63,0.00,,---,0.00,VWS V14.00,2013-03-23 05:31:00,
2013-03-23 01:37:00,45.7,33.8,28.85,West,270,0.0,2.0,63,0.00,,---,0.00,VWS V14.00,2013-03-23 05:37:00,
2013-03-23 01:43:00,45.7,33.8,28.85,West,270,0.0,2.0,63,0.00,,---,0.00,VWS V14.00,2013-03-23 05:43:00,
2013-03-23 01:49:00,45.7,34.2,28.85,NNW,338,0.0,2.0,64,0.00,,---,0.00,VWS V14.00,2013-03-23 05:49:00,
2013-03-23 01:55:00,45.3,33.9,28.82,NNE,22,0.0,2.0,64,0.00,,---,0.00,VWS V14.00,2013-03-23 05:55:00,
2013-03-23 02:01:00,45.3,33.9,28.82,NNE,22,0.0,0.0,64,0.00,,---,0.00,VWS V14.00,2013-03-23 06:01:00,
2013-03-23 02:07:00,45.3,33.9,28.82,North,0,0.0,0.0,64,0.00,,---,0.00,VWS V14.00,2013-03-23 06:07:00,
2013-03-23 02:13:00,45.1,33.7,28.82,North,0,0.0,0.0,64,0.00,,---,0.00,VWS V14.00,2013-03-23 06:13:00,
2013-03-23 02:20:00,45.0,33.5,28.82,North,0,0.0,0.0,64,0.00,,---,0.00,VWS V14.00,2013-03-23 06:20:00,
2013-03-23 02:26:00,45.1,33.7,28.82,North,0,0.0,0.0,64,0.00,,---,0.00,VWS V14.00,2013-03-23 06:26:00,
2013-03-23 02:32:00,45.1,33.7,28.82,North,0,0.0,0.0,64,0.00,,---,0.00,VWS V14.00,2013-03-23 06:32:00,
2013-03-23 02:38:00,45.1,33.7,28.82,North,0,0.0,0.0,64,0.00,,---,0.00,VWS V14.00,2013-03-23 06:38:00,
2013-03-23 02:44:00,45.1,33.7,28.82,North,0,0.0,0.0,64,0.00,,---,0.00,VWS V14.00,2013-03-23 06:44:00,
2013-03-23 02:50:00,45.1,33.7,28.82,West,270,0.9,1.1,64,0.00,,---,0.00,VWS V14.00,2013-03-23 06:50:00,
2013-03-23 02:56:00,45.1,33.7,28.82,West,270,0.0,1.1,64,0.00,,---,0.00,VWS V14.00,2013-03-23 06:56:00,
2013-03-23 03:02:00,45.3,33.9,28.82,West,270,0.0,0.0,64,0.00,,---,0.00,VWS V14.00,2013-03-23 07:02:00,
2013-03-23 03:08:00,45.3,34.3,28.82,West,270,0.0,1.3,65,0.00,,---,0.00,VWS V14.00,2013-03-23 07:08:00,
2013-03-23 03:14:00,45.3,34.3,28.82,WNW,292,0.0,1.3,65,0.00,,---,0.00,VWS V14.00,2013-03-23 07:14:00,
2013-03-23 03:20:00,45.3,34.3,28.82,NW,315,0.0,1.3,65,0.00,,---,0.00,VWS V14.00,2013-03-23 07:20:00,
2013-03-23 03:26:00,45.3,34.3,28.82,NE,45,0.0,1.3,65,0.00,,---,0.00,VWS V14.00,2013-03-23 07:26:00,
2013-03-23 03:32:00,45.3,34.6,28.82,NNE,22,0.0,1.3,66,0.00,,---,0.00,VWS V14.00,2013-03-23 07:32:00,
2013-03-23 03:38:00,45.3,34.3,28.79,NNW,338,0.0,1.3,65,0.00,,---,0.00,VWS V14.00,2013-03-23 07:38:00,
2013-03-23 03:44:00,45.3,34.6,28.79,NNW,338,0.0,1.3,66,0.00,,---,0.00,VWS V14.00,2013-03-23 07:44:00,
2013-03-23 03:50:00,45.3,34.6,28.79,NNE,22,0.0,1.3,66,0.00,,---,0.00,VWS V14.00,2013-03-23 07:50:00,
2013-03-23 03:56:00,45.3,34.3,28.79,NNE,22,0.0,1.3,65,0.00,,---,0.00,VWS V14.00,2013-03-23 07:56:00,
2013-03-23 04:02:00,45.3,34.3,28.79,NE,45,0.0,0.0,65,0.00,,---,0.00,VWS V14.00,2013-03-23 08:02:00,
2013-03-23 04:08:00,45.3,34.6,28.79,NE,45,0.0,0.0,66,0.00,,---,0.00,VWS V14.00,2013-03-23 08:08:00,
2013-03-23 04:14:00,45.3,34.6,28.79,NE,45,0.0,0.0,66,0.00,,---,0.00,VWS V14.00,2013-03-23 08:14:00,
2013-03-23 04:20:00,45.1,34.5,28.79,NE,45,0.0,0.0,66,0.00,,---,0.00,VWS V14.00,2013-03-23 08:20:00,
2013-03-23 04:26:00,45.3,34.6,28.79,NE,45,0.0,0.0,66,0.00,,---,0.00,VWS V14.00,2013-03-23 08:26:00,
2013-03-23 04:32:00,45.3,34.6,28.79,NE,45,0.0,0.0,66,0.00,,---,0.00,VWS V14.00,2013-03-23 08:32:00,
2013-03-23 04:38:00,45.3,34.6,28.79,NE,45,0.0,0.0,66,0.00,,---,0.00,VWS V14.00,2013-03-23 08:38:00,
2013-03-23 04:44:00,45.3,34.6,28.79,NE,45,0.0,0.0,66,0.00,,---,0.00,VWS V14.00,2013-03-23 08:44:00,
2013-03-23 04:50:00,45.3,34.3,28.79,NE,45,0.0,0.0,65,0.00,,---,0.00,VWS V14.00,2013-03-23 08:50:00,
2013-03-23 04:56:00,45.3,34.6,28.79,ENE,68,0.0,1.1,66,0.00,,---,0.00,VWS V14.00,2013-03-23 08:56:00,
2013-03-23 05:02:00,45.3,34.6,28.79,NE,45,0.0,0.0,66,0.00,,---,0.00,VWS V14.00,2013-03-23 09:02:00,
2013-03-23 05:08:00,45.3,34.6,28.79,ENE,68,1.3,1.3,66,0.00,,---,0.00,VWS V14.00,2013-03-23 09:08:00,
2013-03-23 05:14:00,45.1,34.5,28.79,ENE,68,0.0,1.6,66,0.00,,---,0.00,VWS V14.00,2013-03-23 09:14:00,
2013-03-23 05:20:00,45.3,35.0,28.79,NW,315,0.0,1.6,67,0.00,,---,0.00,VWS V14.00,2013-03-23 09:20:00,
2013-03-23 05:27:00,45.3,35.0,28.79,WNW,292,0.0,1.6,67,0.00,,---,0.00,VWS V14.00,2013-03-23 09:27:00,
2013-03-23 05:33:00,45.3,34.6,28.79,WNW,292,0.0,1.6,66,0.00,,---,0.00,VWS V14.00,2013-03-23 09:33:00,
2013-03-23 05:39:00,45.3,34.6,28.79,ESE,112,0.0,1.6,66,0.00,,---,0.00,VWS V14.00,2013-03-23 09:39:00,
2013-03-23 05:45:00,45.3,34.6,28.79,NW,315,0.9,1.6,66,0.00,,---,0.00,VWS V14.00,2013-03-23 09:45:00,
2013-03-23 05:51:00,45.5,35.2,28.79,West,270,2.2,2.2,67,0.00,,---,0.00,VWS V14.00,2013-03-23 09:51:00,
2013-03-23 05:57:00,45.5,35.2,28.79,WNW,292,0.0,2.2,67,0.00,,---,0.00,VWS V14.00,2013-03-23 09:57:00,
2013-03-23 06:03:00,45.5,35.6,28.79,WNW,292,0.0,0.0,68,0.00,,---,0.00,VWS V14.00,2013-03-23 10:03:00,
2013-03-23 06:09:00,45.5,35.9,28.79,WNW,292,0.0,0.0,69,0.00,,---,0.00,VWS V14.00,2013-03-23 10:09:00,
2013-03-23 06:15:00,45.3,36.1,28.79,WNW,292,0.0,2.5,70,0.00,,---,0.00,VWS V14.00,2013-03-23 10:15:00,
2013-03-23 06:24:00,45.1,36.7,28.79,ENE,68,0.0,2.5,72,0.00,,---,0.00,VWS V14.00,2013-03-23 10:24:00,
2013-03-23 06:30:00,45.1,36.7,28.79,NE,45,0.0,2.5,72,0.00,,---,0.00,VWS V14.00,2013-03-23 10:30:00,
2013-03-23 06:36:00,45.1,36.7,28.79,NNE,22,0.0,2.5,72,0.00,,---,0.00,VWS V14.00,2013-03-23 10:36:00,
2013-03-23 06:42:00,45.1,37.0,28.79,WNW,292,2.0,2.5,73,0.00,,---,0.00,VWS V14.00,2013-03-23 10:42:00,
2013-03-23 06:48:00,45.0,36.8,28.79,WNW,292,0.0,2.5,73,0.04,,---,0.04,VWS V14.00,2013-03-23 10:48:00,
2013-03-23 06:54:00,45.0,36.8,28.82,WNW,292,0.0,2.5,73,0.04,,---,0.04,VWS V14.00,2013-03-23 10:54:00,
2013-03-23 07:00:00,45.0,36.8,28.82,WNW,292,0.0,2.5,73,0.04,,---,0.04,VWS V14.00,2013-03-23 11:00:00,
2013-03-23 07:06:00,45.0,36.8,28.82,South,180,1.6,1.6,73,0.04,,---,0.04,VWS V14.00,2013-03-23 11:06:00,
2013-03-23 07:12:00,44.8,36.7,28.82,SE,135,1.1,2.2,73,0.04,,---,0.04,VWS V14.00,2013-03-23 11:12:00,
2013-03-23 07:18:00,44.8,36.7,28.82,South,180,0.0,3.8,73,0.08,,---,0.08,VWS V14.00,2013-03-23 11:18:00,
2013-03-23 07:24:00,44.8,36.7,28.82,WSW,248,0.0,3.8,73,0.08,,---,0.08,VWS V14.00,2013-03-23 11:24:00,
2013-03-23 07:30:00,44.8,36.7,28.82,WSW,248,0.0,3.8,73,0.08,,---,0.08,VWS V14.00,2013-03-23 11:30:00,
2013-03-23 07:36:00,44.6,36.8,28.82,West,270,0.0,3.8,74,0.08,,---,0.08,VWS V14.00,2013-03-23 11:36:00,
2013-03-23 07:42:00,44.6,36.8,28.82,West,270,0.0,3.8,74,0.08,,---,0.08,VWS V14.00,2013-03-23 11:42:00,
2013-03-23 07:48:00,44.6,36.8,28.82,West,270,0.0,3.8,74,0.08,,---,0.08,VWS V14.00,2013-03-23 11:48:00,
2013-03-23 07:54:00,44.2,36.5,28.82,West,270,0.0,3.8,74,0.08,,---,0.08,VWS V14.00,2013-03-23 11:54:00,
2013-03-23 08:00:00,44.4,36.7,28.82,SW,225,0.0,3.8,74,0.08,,---,0.08,VWS V14.00,2013-03-23 12:00:00,
2013-03-23 08:06:00,44.4,37.0,28.82,WSW,248,0.0,0.0,75,0.04,,---,0.08,VWS V14.00,2013-03-23 12:06:00,
2013-03-23 08:13:00,44.4,37.0,28.85,WSW,248,0.0,0.0,75,0.04,,---,0.08,VWS V14.00,2013-03-23 12:13:00,
2013-03-23 08:19:00,44.4,37.0,28.85,West,270,0.0,0.0,75,0.04,,---,0.08,VWS V14.00,2013-03-23 12:19:00,
2013-03-23 08:25:00,44.4,37.0,28.85,South,180,0.0,1.3,75,0.04,,---,0.08,VWS V14.00,2013-03-23 12:25:00,
2013-03-23 08:31:00,44.6,37.2,28.85,SSW,202,0.0,1.3,75,0.04,,---,0.08,VWS V14.00,2013-03-23 12:31:00,
2013-03-23 08:37:00,44.4,37.0,28.85,SSW,202,0.0,1.3,75,0.04,,---,0.08,VWS V14.00,2013-03-23 12:37:00,
2013-03-23 08:43:00,44.6,37.2,28.88,SSW,202,0.0,1.3,75,0.08,,---,0.12,VWS V14.00,2013-03-23 12:43:00,
2013-03-23 08:49:00,44.6,37.2,28.88,WNW,292,0.0,1.3,75,0.08,,---,0.12,VWS V14.00,2013-03-23 12:49:00,
2013-03-23 08:55:00,44.8,37.3,28.88,WNW,292,0.0,1.3,75,0.08,,---,0.12,VWS V14.00,2013-03-23 12:55:00,
2013-03-23 09:01:00,44.6,37.2,28.88,NE,45,0.0,0.0,75,0.04,,---,0.12,VWS V14.00,2013-03-23 13:01:00,
2013-03-23 09:07:00,44.8,37.7,28.88,NE,45,0.0,0.0,76,0.04,,---,0.12,VWS V14.00,2013-03-23 13:07:00,
2013-03-23 09:13:00,44.8,37.7,28.88,NE,45,0.0,0.0,76,0.04,,---,0.12,VWS V14.00,2013-03-23 13:13:00,
2013-03-23 09:19:00,44.8,37.7,28.88,ENE,68,0.0,0.9,76,0.04,,---,0.12,VWS V14.00,2013-03-23 13:19:00,
2013-03-23 09:25:00,45.0,37.9,28.85,NE,45,0.0,0.9,76,0.04,,---,0.12,VWS V14.00,2013-03-23 13:25:00,
2013-03-23 09:31:00,45.0,37.9,28.85,NE,45,0.0,0.9,76,0.04,,---,0.12,VWS V14.00,2013-03-23 13:31:00,
2013-03-23 09:37:00,45.0,37.9,28.85,ENE,68,1.3,1.6,76,0.04,,---,0.12,VWS V14.00,2013-03-23 13:37:00,
2013-03-23 09:43:00,45.0,37.9,28.85,North,0,0.0,1.6,76,0.04,,---,0.12,VWS V14.00,2013-03-23 13:43:00,
2013-03-23 09:49:00,45.1,38.0,28.85,ENE,68,0.0,1.6,76,0.04,,---,0.12,VWS V14.00,2013-03-23 13:49:00,
2013-03-23 09:56:00,45.1,38.0,28.85,ENE,68,0.0,1.6,76,0.04,,---,0.12,VWS V14.00,2013-03-23 13:56:00,
2013-03-23 10:02:00,45.1,38.4,28.85,ENE,68,1.1,1.3,77,0.00,,---,0.12,VWS V14.00,2013-03-23 14:02:00,
2013-03-23 10:08:00,45.1,38.4,28.85,NE,45,0.9,1.6,77,0.00,,---,0.12,VWS V14.00,2013-03-23 14:08:00,
2013-03-23 10:14:00,45.1,38.4,28.85,NE,45,0.0,1.6,77,0.00,,---,0.12,VWS V14.00,2013-03-23 14:14:00,
2013-03-23 10:20:00,45.3,38.5,28.85,ENE,68,1.1,1.6,77,0.00,,---,0.12,VWS V14.00,2013-03-23 14:20:00,
2013-03-23 10:26:00,45.3,38.5,28.82,ENE,68,0.0,1.6,77,0.00,,---,0.12,VWS V14.00,2013-03-23 14:26:00,
2013-03-23 10:32:00,45.3,38.5,28.82,ENE,68,1.1,1.6,77,0.00,,---,0.12,VWS V14.00,2013-03-23 14:32:00,
2013-03-23 10:38:00,45.3,38.5,28.82,NNW,338,0.0,2.0,77,0.00,,---,0.12,VWS V14.00,2013-03-23 14:38:00,
2013-03-23 10:44:00,45.3,38.5,28.82,NNE,22,1.1,2.0,77,0.00,,---,0.12,VWS V14.00,2013-03-23 14:44:00,
2013-03-23 10:50:00,45.5,38.7,28.82,NNE,22,0.0,2.0,77,0.00,,---,0.12,VWS V14.00,2013-03-23 14:50:00,
2013-03-23 10:59:00,45.3,38.5,28.85,ENE,68,1.3,2.5,77,0.00,,---,0.12,VWS V14.00,2013-03-23 14:59:00,
2013-03-23 11:08:00,45.3,38.5,28.82,ENE,68,0.0,1.6,77,0.00,,---,0.12,VWS V14.00,2013-03-23 15:08:00,
2013-03-23 11:14:00,45.3,38.5,28.82,SSW,202,0.0,2.0,77,0.00,,---,0.12,VWS V14.00,2013-03-23 15:14:00,
2013-03-23 11:21:00,45.5,38.7,28.82,SSE,158,1.6,2.0,77,0.00,,---,0.12,VWS V14.00,2013-03-23 15:21:00,
2013-03-23 11:27:00,45.5,39.0,28.82,SSE,158,2.0,2.2,78,0.00,,---,0.12,VWS V14.00,2013-03-23 15:27:00,
2013-03-23 11:33:00,45.5,39.0,28.82,ENE,68,0.0,2.2,78,0.00,,---,0.12,VWS V14.00,2013-03-23 15:33:00,
2013-03-23 11:39:00,45.7,39.2,28.82,East,90,0.0,2.2,78,0.00,,---,0.12,VWS V14.00,2013-03-23 15:39:00,
2013-03-23 11:45:00,45.9,39.4,28.82,East,90,0.0,2.2,78,0.00,,---,0.12,VWS V14.00,2013-03-23 15:45:00,
2013-03-23 11:51:00,46.0,39.6,28.82,NE,45,0.0,2.2,78,0.00,,---,0.12,VWS V14.00,2013-03-23 15:51:00,
2013-03-23 11:57:00,46.0,39.6,28.82,ENE,68,0.0,2.2,78,0.00,,---,0.12,VWS V14.00,2013-03-23 15:57:00,
2013-03-23 12:03:00,46.0,39.6,28.82,East,90,0.0,1.3,78,0.00,,---,0.12,VWS V14.00,2013-03-23 16:03:00,
2013-03-23 12:09:00,46.2,39.8,28.82,West,270,0.0,1.3,78,0.00,,---,0.12,VWS V14.00,2013-03-23 16:09:00,
2013-03-23 12:15:00,46.2,39.8,28.82,West,270,0.0,1.3,78,0.00,,---,0.12,VWS V14.00,2013-03-23 16:15:00,
2013-03-23 12:21:00,46.4,39.6,28.82,West,270,0.0,1.3,77,0.00,,---,0.12,VWS V14.00,2013-03-23 16:21:00,
2013-03-23 12:27:00,46.4,39.9,28.82,West,270,0.0,1.3,78,0.00,,---,0.12,VWS V14.00,2013-03-23 16:27:00,
2013-03-23 12:33:00,46.6,40.1,28.82,West,270,0.0,1.3,78,0.00,,---,0.12,VWS V14.00,2013-03-23 16:33:00,
2013-03-23 12:39:00,46.6,39.8,28.82,West,270,0.0,1.3,77,0.00,,---,0.12,VWS V14.00,2013-03-23 16:39:00,
2013-03-23 12:45:00,46.8,40.3,28.82,West,270,0.0,1.3,78,0.00,,---,0.12,VWS V14.00,2013-03-23 16:45:00,
2013-03-23 12:51:00,46.9,40.5,28.82,North,0,0.0,1.3,78,0.00,,---,0.12,VWS V14.00,2013-03-23 16:51:00,
2013-03-23 12:57:00,46.9,40.5,28.82,NE,45,1.3,1.6,78,0.00,,---,0.12,VWS V14.00,2013-03-23 16:57:00,
2013-03-23 13:03:00,47.1,40.6,28.82,North,0,0.0,1.1,78,0.00,,---,0.12,VWS V14.00,2013-03-23 17:03:00,
2013-03-23 13:09:00,47.3,41.1,28.82,North,0,0.0,1.1,79,0.00,,---,0.12,VWS V14.00,2013-03-23 17:09:00,
2013-03-23 13:15:00,47.3,40.8,28.82,ENE,68,1.3,1.3,78,0.00,,---,0.12,VWS V14.00,2013-03-23 17:15:00,
2013-03-23 13:21:00,47.3,40.8,28.82,NE,45,0.0,1.3,78,0.00,,---,0.12,VWS V14.00,2013-03-23 17:21:00,
2013-03-23 13:27:00,47.5,41.0,28.82,East,90,1.1,1.3,78,0.00,,---,0.12,VWS V14.00,2013-03-23 17:27:00,
2013-03-23 13:33:00,47.7,41.2,28.82,ENE,68,0.0,1.3,78,0.00,,---,0.12,VWS V14.00,2013-03-23 17:33:00,
2013-03-23 13:39:00,47.7,41.2,28.82,ESE,112,1.6,2.7,78,0.00,,---,0.12,VWS V14.00,2013-03-23 17:39:00,
2013-03-23 13:45:00,47.8,41.3,28.82,North,0,0.0,2.7,78,0.00,,---,0.12,VWS V14.00,2013-03-23 17:45:00,
2013-03-23 13:51:00,48.0,41.5,28.82,ENE,68,1.1,2.7,78,0.00,,---,0.12,VWS V14.00,2013-03-23 17:51:00,
2013-03-23 13:57:00,48.2,41.7,28.79,North,0,0.0,2.7,78,0.00,,---,0.12,VWS V14.00,2013-03-23 17:57:00,
2013-03-23 14:04:00,48.4,41.8,28.79,ESE,112,2.0,2.0,78,0.00,,---,0.12,VWS V14.00,2013-03-23 18:04:00,
2013-03-23 14:10:00,48.7,42.2,28.79,SE,135,2.9,3.1,78,0.00,,---,0.12,VWS V14.00,2013-03-23 18:10:00,
2013-03-23 14:19:00,48.9,42.4,28.79,East,90,2.9,3.1,78,0.00,,---,0.12,VWS V14.00,2013-03-23 18:19:00,
2013-03-23 14:25:00,49.3,42.7,28.79,ESE,112,2.0,3.1,78,0.00,,---,0.12,VWS V14.00,2013-03-23 18:25:00,
2013-03-23 14:34:00,49.6,43.1,28.79,NE,45,1.1,3.1,78,0.00,,---,0.12,VWS V14.00,2013-03-23 18:34:00,
2013-03-23 14:40:00,50.0,43.1,28.76,ESE,112,2.7,3.1,77,0.00,,---,0.12,VWS V14.00,2013-03-23 18:40:00,
2013-03-23 14:46:00,50.2,43.6,28.76,East,90,0.0,3.1,78,0.00,,---,0.12,VWS V14.00,2013-03-23 18:46:00,
2013-03-23 14:52:00,50.5,43.6,28.76,East,90,2.9,3.8,77,0.00,,---,0.12,VWS V14.00,2013-03-23 18:52:00,
2013-03-23 14:58:00,50.9,44.0,28.76,WSW,248,0.0,3.8,77,0.00,,---,0.12,VWS V14.00,2013-03-23 18:58:00,
2013-03-23 15:05:00,51.1,44.1,28.76,East,90,2.5,2.5,77,0.00,,---,0.12,VWS V14.00,2013-03-23 19:05:00,
2013-03-23 15:11:00,51.4,44.5,28.76,East,90,2.5,4.0,77,0.00,,---,0.12,VWS V14.00,2013-03-23 19:11:00,
2013-03-23 15:17:00,51.6,44.7,28.76,WSW,248,0.9,4.0,77,0.00,,---,0.12,VWS V14.00,2013-03-23 19:17:00,
2013-03-23 15:23:00,52.0,44.7,28.73,SSE,158,3.4,4.0,76,0.00,,---,0.12,VWS V14.00,2013-03-23 19:23:00,
2013-03-23 15:29:00,52.2,44.8,28.73,South,180,5.6,5.6,76,0.00,,---,0.12,VWS V14.00,2013-03-23 19:29:00,
2013-03-23 15:35:00,52.5,45.2,28.73,NE,45,3.1,7.8,76,0.00,,---,0.12,VWS V14.00,2013-03-23 19:35:00,
2013-03-23 15:41:00,52.7,45.4,28.73,ENE,68,1.1,7.8,76,0.00,,---,0.12,VWS V14.00,2013-03-23 19:41:00,
2013-03-23 15:47:00,52.9,45.2,28.73,North,0,6.5,7.8,75,0.00,,---,0.12,VWS V14.00,2013-03-23 19:47:00,
2013-03-23 15:53:00,53.1,45.4,28.73,ESE,112,2.5,7.8,75,0.00,,---,0.12,VWS V14.00,2013-03-23 19:53:00,
2013-03-23 15:59:00,53.1,45.4,28.73,ESE,112,2.0,7.8,75,0.00,,---,0.12,VWS V14.00,2013-03-23 19:59:00,
2013-03-23 16:05:00,53.2,45.5,28.73,SE,135,0.0,3.4,75,0.00,,---,0.12,VWS V14.00,2013-03-23 20:05:00,
2013-03-23 16:11:00,53.2,45.5,28.73,SE,135,3.8,6.0,75,0.00,,---,0.12,VWS V14.00,2013-03-23 20:11:00,
2013-03-23 16:17:00,53.2,45.2,28.73,SE,135,1.1,6.0,74,0.00,,---,0.12,VWS V14.00,2013-03-23 20:17:00,
2013-03-23 16:23:00,53.2,45.2,28.73,SW,225,0.0,6.0,74,0.00,,---,0.12,VWS V14.00,2013-03-23 20:23:00,
2013-03-23 16:29:00,53.4,45.3,28.73,ENE,68,4.0,6.0,74,0.00,,---,0.12,VWS V14.00,2013-03-23 20:29:00,
2013-03-23 16:35:00,53.4,45.3,28.73,East,90,1.6,6.0,74,0.00,,---,0.12,VWS V14.00,2013-03-23 20:35:00,
2013-03-23 16:41:00,53.4,45.3,28.73,East,90,2.7,6.0,74,0.00,,---,0.12,VWS V14.00,2013-03-23 20:41:00,
2013-03-23 16:47:00,53.6,45.5,28.73,ESE,112,2.5,6.5,74,0.00,,---,0.12,VWS V14.00,2013-03-23 20:47:00,
2013-03-23 16:53:00,53.6,45.5,28.73,ESE,112,2.7,6.5,74,0.00,,---,0.12,VWS V14.00,2013-03-23 20:53:00,
2013-03-23 16:59:00,53.6,45.5,28.73,East,90,0.9,6.5,74,0.00,,---,0.12,VWS V14.00,2013-03-23 20:59:00,
2013-03-23 17:05:00,53.6,45.5,28.73,West,270,0.0,3.6,74,0.00,,---,0.12,VWS V14.00,2013-03-23 21:05:00,
2013-03-23 17:15:00,53.8,45.7,28.73,East,90,0.9,4.0,74,0.00,,---,0.12,VWS V14.00,2013-03-23 21:15:00,
2013-03-23 17:21:00,53.8,45.3,28.73,SE,135,2.0,4.0,73,0.00,,---,0.12,VWS V14.00,2013-03-23 21:21:00,
2013-03-23 17:27:00,53.8,45.3,28.73,ENE,68,0.0,4.0,73,0.00,,---,0.12,VWS V14.00,2013-03-23 21:27:00,
2013-03-23 17:33:00,54.0,45.9,28.73,ENE,68,0.9,4.0,74,0.00,,---,0.12,VWS V14.00,2013-03-23 21:33:00,
2013-03-23 17:39:00,54.0,45.5,28.73,SE,135,2.5,4.0,73,0.00,,---,0.12,VWS V14.00,2013-03-23 21:39:00,
2013-03-23 17:45:00,54.0,45.5,28.73,East,90,2.7,4.0,73,0.00,,---,0.12,VWS V14.00,2013-03-23 21:45:00,
2013-03-23 17:51:00,54.0,45.9,28.73,East,90,1.6,4.0,74,0.00,,---,0.12,VWS V14.00,2013-03-23 21:51:00,
2013-03-23 17:57:00,54.0,45.5,28.70,SE,135,1.3,4.0,73,0.00,,---,0.12,VWS V14.00,2013-03-23 21:57:00,
2013-03-23 18:03:00,54.0,45.5,28.70,West,270,0.9,2.0,73,0.00,,---,0.12,VWS V14.00,2013-03-23 22:03:00,
2013-03-23 18:09:00,54.0,45.5,28.73,ESE,112,1.3,3.1,73,0.00,,---,0.12,VWS V14.00,2013-03-23 22:09:00,
2013-03-23 18:15:00,54.0,45.5,28.73,NE,45,0.0,3.1,73,0.00,,---,0.12,VWS V14.00,2013-03-23 22:15:00,
2013-03-23 18:21:00,54.0,45.5,28.73,ENE,68,2.0,3.1,73,0.00,,---,0.12,VWS V14.00,2013-03-23 22:21:00,
2013-03-23 18:27:00,54.0,45.5,28.73,East,90,0.0,3.1,73,0.00,,---,0.12,VWS V14.00,2013-03-23 22:27:00,
2013-03-23 18:33:00,54.0,45.5,28.73,NNE,22,0.0,3.1,73,0.00,,---,0.12,VWS V14.00,2013-03-23 22:33:00,
2013-03-23 18:39:00,54.0,45.9,28.73,NE,45,0.0,3.1,74,0.00,,---,0.12,VWS V14.00,2013-03-23 22:39:00,
2013-03-23 18:45:00,54.0,45.9,28.73,East,90,0.0,3.1,74,0.00,,---,0.12,VWS V14.00,2013-03-23 22:45:00,
2013-03-23 18:54:00,54.0,45.9,28.73,East,90,0.0,3.1,74,0.00,,---,0.12,VWS V14.00,2013-03-23 22:54:00,
2013-03-23 19:00:00,54.0,45.9,28.73,East,90,1.6,3.1,74,0.00,,---,0.12,VWS V14.00,2013-03-23 23:00:00,
2013-03-23 19:06:00,54.0,45.9,28.73,NNE,22,0.0,1.6,74,0.00,,---,0.12,VWS V14.00,2013-03-23 23:06:00,
2013-03-23 19:12:00,53.8,45.7,28.73,ENE,68,0.0,1.6,74,0.00,,---,0.12,VWS V14.00,2013-03-23 23:12:00,
2013-03-23 19:18:00,53.8,45.7,28.73,East,90,2.0,2.0,74,0.00,,---,0.12,VWS V14.00,2013-03-23 23:18:00,
2013-03-23 19:24:00,53.8,45.7,28.73,East,90,2.5,2.5,74,0.00,,---,0.12,VWS V14.00,2013-03-23 23:24:00,
2013-03-23 19:31:00,53.8,45.7,28.73,East,90,0.0,2.5,74,0.00,,---,0.12,VWS V14.00,2013-03-23 23:31:00,
2013-03-23 19:37:00,53.6,45.5,28.73,SE,135,1.1,2.5,74,0.00,,---,0.12,VWS V14.00,2013-03-23 23:37:00,
2013-03-23 19:43:00,53.6,45.5,28.73,NE,45,0.0,2.5,74,0.00,,---,0.12,VWS V14.00,2013-03-23 23:43:00,
2013-03-23 19:49:00,53.6,45.5,28.73,SE,135,2.0,2.5,74,0.00,,---,0.12,VWS V14.00,2013-03-23 23:49:00,
2013-03-23 19:55:00,53.6,45.5,28.73,ENE,68,0.0,2.5,74,0.00,,---,0.12,VWS V14.00,2013-03-23 23:55:00,
2013-03-23 20:00:00,53.4,45.7,28.73,SE,135,0.9,2.5,75,0.00,,---,0.12,VWS V14.00,2013-03-24 00:00:00,
2013-03-23 20:07:00,53.4,45.7,28.73,WSW,248,0.9,2.5,75,0.00,,---,0.12,VWS V14.00,2013-03-24 00:07:00,
2013-03-23 20:13:00,53.4,45.7,28.73,WSW,248,1.3,2.5,75,0.00,,---,0.12,VWS V14.00,2013-03-24 00:13:00,
2013-03-23 20:19:00,53.4,45.7,28.73,WSW,248,0.9,2.5,75,0.00,,---,0.12,VWS V14.00,2013-03-24 00:19:00,
2013-03-23 20:25:00,53.2,45.5,28.73,NNW,338,0.0,2.5,75,0.00,,---,0.12,VWS V14.00,2013-03-24 00:25:00,
2013-03-23 20:31:00,53.2,45.5,28.73,East,90,0.0,2.5,75,0.00,,---,0.12,VWS V14.00,2013-03-24 00:31:00,
2013-03-23 20:37:00,53.1,45.4,28.73,NNW,338,0.0,2.5,75,0.00,,---,0.12,VWS V14.00,2013-03-24 00:37:00,
2013-03-23 20:43:00,53.1,45.7,28.73,NE,45,0.0,2.5,76,0.00,,---,0.12,VWS V14.00,2013-03-24 00:43:00,
2013-03-23 20:49:00,53.1,45.7,28.73,NE,45,0.0,2.5,76,0.00,,---,0.12,VWS V14.00,2013-03-24 00:49:00,
2013-03-23 20:55:00,53.1,45.7,28.73,NW,315,0.0,2.5,76,0.00,,---,0.12,VWS V14.00,2013-03-24 00:55:00,
2013-03-23 21:01:00,53.1,45.7,28.73,NW,315,0.0,0.0,76,0.00,,---,0.12,VWS V14.00,2013-03-24 01:01:00,
2013-03-23 21:07:00,53.1,45.7,28.73,WNW,292,0.0,1.6,76,0.00,,---,0.12,VWS V14.00,2013-03-24 01:07:00,
2013-03-23 21:13:00,53.1,45.7,28.73,NNW,338,0.0,1.6,76,0.00,,---,0.12,VWS V14.00,2013-03-24 01:13:00,
2013-03-23 21:19:00,53.1,45.7,28.73,NNE,22,0.0,1.6,76,0.00,,---,0.12,VWS V14.00,2013-03-24 01:19:00,
2013-03-23 21:25:00,52.9,45.5,28.73,NE,45,0.0,1.6,76,0.00,,---,0.12,VWS V14.00,2013-03-24 01:25:00,
2013-03-23 21:31:00,52.9,45.5,28.73,NE,45,0.0,1.6,76,0.00,,---,0.12,VWS V14.00,2013-03-24 01:31:00,
2013-03-23 21:37:00,52.9,45.5,28.73,ENE,68,2.0,2.0,76,0.00,,---,0.12,VWS V14.00,2013-03-24 01:37:00,
2013-03-23 21:43:00,52.7,45.7,28.73,WNW,292,0.0,2.0,77,0.00,,---,0.12,VWS V14.00,2013-03-24 01:43:00,
2013-03-23 21:49:00,52.7,45.7,28.73,NE,45,0.0,2.0,77,0.00,,---,0.12,VWS V14.00,2013-03-24 01:49:00,
2013-03-23 21:55:00,52.7,45.7,28.73,NNE,22,0.0,2.0,77,0.00,,---,0.12,VWS V14.00,2013-03-24 01:55:00,
2013-03-23 22:02:00,52.7,45.7,28.73,NE,45,0.0,0.0,77,0.00,,---,0.12,VWS V14.00,2013-03-24 02:02:00,
2013-03-23 22:08:00,52.5,45.5,28.73,NE,45,0.0,0.0,77,0.00,,---,0.12,VWS V14.00,2013-03-24 02:08:00,
2013-03-23 22:14:00,52.5,45.5,28.73,ENE,68,0.0,1.6,77,0.00,,---,0.12,VWS V14.00,2013-03-24 02:14:00,
2013-03-23 22:20:00,52.5,45.5,28.73,ENE,68,1.1,1.6,77,0.00,,---,0.12,VWS V14.00,2013-03-24 02:20:00,
2013-03-23 22:26:00,52.3,45.3,28.73,NE,45,0.0,2.9,77,0.00,,---,0.12,VWS V14.00,2013-03-24 02:26:00,
2013-03-23 22:32:00,52.3,45.3,28.73,NE,45,1.1,2.9,77,0.00,,---,0.12,VWS V14.00,2013-03-24 02:32:00,
2013-03-23 22:38:00,52.2,45.2,28.73,ENE,68,0.9,2.9,77,0.00,,---,0.12,VWS V14.00,2013-03-24 02:38:00,
2013-03-23 22:44:00,52.2,45.2,28.73,NE,45,0.0,2.9,77,0.00,,---,0.12,VWS V14.00,2013-03-24 02:44:00,
2013-03-23 22:50:00,52.2,45.2,28.73,ENE,68,0.0,2.9,77,0.00,,---,0.12,VWS V14.00,2013-03-24 02:50:00,
2013-03-23 22:56:00,52.2,45.2,28.73,ENE,68,0.9,2.9,77,0.00,,---,0.12,VWS V14.00,2013-03-24 02:56:00,
2013-03-23 23:02:00,52.2,45.2,28.73,ENE,68,2.5,2.5,77,0.00,,---,0.12,VWS V14.00,2013-03-24 03:02:00,
2013-03-23 23:08:00,52.0,45.0,28.73,East,90,2.5,2.7,77,0.00,,---,0.12,VWS V14.00,2013-03-24 03:08:00,
2013-03-23 23:14:00,52.0,45.0,28.73,SSE,158,3.6,3.6,77,0.00,,---,0.12,VWS V14.00,2013-03-24 03:14:00,
2013-03-23 23:20:00,51.8,44.8,28.73,West,270,0.0,3.8,77,0.00,,---,0.12,VWS V14.00,2013-03-24 03:20:00,
2013-03-23 23:26:00,51.8,44.8,28.73,East,90,1.3,3.8,77,0.00,,---,0.12,VWS V14.00,2013-03-24 03:26:00,
2013-03-23 23:32:00,51.6,44.7,28.73,NE,45,1.3,3.8,77,0.00,,---,0.12,VWS V14.00,2013-03-24 03:32:00,
2013-03-23 23:38:00,51.6,44.7,28.73,NE,45,0.9,3.8,77,0.00,,---,0.12,VWS V14.00,2013-03-24 03:38:00,
2013-03-23 23:44:00,51.6,45.0,28.73,NNE,22,0.0,3.8,78,0.00,,---,0.12,VWS V14.00,2013-03-24 03:44:00,
2013-03-23 23:50:00,51.6,45.0,28.73,ENE,68,2.5,3.8,78,0.00,,---,0.12,VWS V14.00,2013-03-24 03:50:00,
2013-03-23 23:56:00,51.6,45.0,28.70,NE,45,0.0,3.8,78,0.00,,---,0.12,VWS V14.00,2013-03-24 03:56:00,